Weather History for Punta Gorda, FL

Change the Weather History Date:

Friday, May 16, 2014

  Actual Average Record
Temperature  
Mean Temperature 74 °F -  
Max Temperature 82 °F 86 °F 93 °F (2000)
Min Temperature 62 °F 63 °F 57 °F (2001)
Cooling Degree Days 9    
Growing Degree Days 24 (Base 50)    
Moisture  
Dew Point 58 °F    
Average Humidity 62    
Maximum Humidity 82    
Minimum Humidity 27    
Precipitation  
Precipitation 0.00 in - - ()
Sea Level Pressure  
Sea Level Pressure 30.06 in    
Wind  
Wind Speed 11 mph (North)    
Max Wind Speed 20 mph    
Max Gust Speed 26 mph    
Visibility 10 miles    
Events      
Averages and records for this station are not official NWS values.
T = Trace of Precipitation, MM = Missing Value Source: NWS Daily Summary

Daily Weather History Graph

Daily Weather History Graph

Search for Another Location

Airport:

Trip Planner

Search our weather history database for the weather conditions in past years. The results will help you decide how hot, cold, wet, or windy it might be!

Date:

Astronomy

May. 16, 2014 Rise Set
Actual Time 6:39 AM EDT 8:09 PM EDT
Civil Twilight 6:14 AM EDT 8:34 PM EDT
Nautical Twilight 5:44 AM EDT 9:04 PM EDT
Astronomical Twilight 5:12 AM EDT 9:36 PM EDT
Moon 10:15 PM EDT (5/16) 8:20 AM EDT (5/16)
Length of Visible Light 14h 20m
Length of Day
13h 29m
Waning Gibbous, 95% of the Moon is Illuminated
May 16
Waning Gibbous
May 21
Last Quarter
May 28
New
Jun 5
First Quarter
Jun 13
Full

Hourly Weather History & Observations

Time (EDT) Temp. Dew Point Humidity Pressure Visibility Wind Dir Wind Speed Gust Speed Precip Events Conditions
12:13 AM 75.0 °F 69.1 °F 82% 30.02 in 10.0 mi NW 10.4 mph - N/A   Mostly Cloudy
12:23 AM 75.0 °F 69.1 °F 82% 30.02 in 10.0 mi NW 11.5 mph - N/A   Scattered Clouds
12:53 AM 75.0 °F 68.0 °F 79% 30.02 in 10.0 mi NW 12.7 mph - N/A   Clear
1:24 AM 73.9 °F 68.0 °F 82% 30.02 in 10.0 mi NW 10.4 mph - N/A   Mostly Cloudy
1:53 AM 73.9 °F 66.9 °F 79% 30.02 in 10.0 mi NW 11.5 mph - N/A   Overcast
2:53 AM 73.0 °F 66.0 °F 79% 30.01 in 10.0 mi NNW 8.1 mph - N/A   Overcast
4:25 AM 73.0 °F 64.9 °F 76% 30.01 in 10.0 mi NW 6.9 mph - N/A   Overcast
4:53 AM 73.0 °F 64.9 °F 76% 30.01 in 10.0 mi NW 6.9 mph - N/A   Overcast
5:53 AM 72.0 °F 64.9 °F 78% 30.01 in 10.0 mi NNW 5.8 mph - N/A   Mostly Cloudy
6:37 AM 72.0 °F 66.0 °F 81% 30.02 in 10.0 mi NNW 12.7 mph - N/A   Overcast
6:53 AM 72.0 °F 64.9 °F 78% 30.04 in 10.0 mi NNW 17.3 mph 21.9 mph N/A   Overcast
7:53 AM 70.0 °F 62.1 °F 76% 30.07 in 10.0 mi North 12.7 mph - N/A   Mostly Cloudy
8:22 AM 70.0 °F 62.1 °F 76% 30.08 in 10.0 mi North 10.4 mph - N/A   Overcast
8:45 AM 69.1 °F 57.9 °F 68% 30.09 in 10.0 mi North 19.6 mph 26.5 mph N/A   Mostly Cloudy
8:53 AM 69.1 °F 57.9 °F 68% 30.09 in 10.0 mi North 16.1 mph 26.5 mph N/A   Mostly Cloudy
9:53 AM 71.1 °F 57.0 °F 61% 30.09 in 10.0 mi NNW 16.1 mph 25.3 mph N/A   Partly Cloudy
10:53 AM 72.0 °F 54.0 °F 53% 30.11 in 10.0 mi North 17.3 mph - N/A   Clear
11:53 AM 73.9 °F 50.0 °F 43% 30.11 in 10.0 mi NNE 17.3 mph 24.2 mph N/A   Clear
12:53 PM 77.0 °F 48.0 °F 36% 30.11 in 10.0 mi NNE 11.5 mph 23.0 mph N/A   Clear
1:53 PM 79.0 °F 46.9 °F 32% 30.10 in 10.0 mi North 16.1 mph - N/A   Clear
2:53 PM 82.0 °F 46.9 °F 29% 30.08 in 10.0 mi North 15.0 mph 23.0 mph N/A   Clear
4:53 PM 82.0 °F 45.0 °F 27% 30.05 in 10.0 mi NNE 12.7 mph - N/A   Clear
5:53 PM 82.0 °F 46.0 °F 28% 30.04 in 10.0 mi NNE 16.1 mph 20.7 mph N/A   Clear
6:53 PM 80.1 °F 44.1 °F 28% 30.06 in 10.0 mi NNE 13.8 mph - N/A   Clear
7:53 PM 72.0 °F 51.1 °F 48% 30.07 in 10.0 mi NE 8.1 mph - N/A   Clear
8:53 PM 68.0 °F 50.0 °F 52% 30.09 in 10.0 mi NNE 5.8 mph - N/A   Clear
9:53 PM 66.0 °F 51.1 °F 59% 30.12 in 10.0 mi NNE 5.8 mph - N/A   Clear
11:53 PM 62.1 °F 54.0 °F 75% 30.14 in 10.0 mi ENE 3.5 mph - N/A   Clear